Showing default

EXPLORER 36 (GEOS 2), 3093

Orbit data source: Space-Track

EXPLORER 36 (GEOS 2), 3093 is a payload satellite owned by GSFC (US) in LEO that was launched on Thu, 11 Jan 1968 UTC via a THOR DELTA E1 launch vehicle from the Air Force Western Test Range (AFWTR). Payload-class satellites include a variety of spacecraft equipped with specific instruments for various scientific and technological missions. These include communications satellites like Starlink; space stations such as the ISS; scientific satellites like the Hubble; Earth observation satellites from companies like Planet Labs, Umbra, and HawkEye 360; GPS; miniature CubeSats for education and research; and military/defense satellites.

Loading next visibility...
Identifier
3093, 1968-002A
Orbit
LEO
Country
Flag of USUS
Related business
Manufacturer
APL
Mission
Spacecraft
Bus & Motor
ANNA, Unknown motor
Mass
212 kg wet, 212 kg dry
Launch date (UTC)
1968-01-11 (58 years ago)
Launch vehicle
THOR DELTA E1
Launch site
Air Force Western Test Range (AFWTR)
Object type
Payload
Rocket body
Debris
Shape & HBR
Unknown
Radar Cross Section
Large (>1 m²)

Expand to show TLE details & history
Last TLE update: 12 hours ago

TLE from 12 hours ago
0 EXPLORER 36 (GEOS 2)
1  3093U 68002A   26035.47645675 -.00000090  00000-0 -44373-4 0  9997
2  3093 105.8038 234.1591 0319414 321.0889  90.6824 12.83599495720339
Epoch: 2026-02-04T11:26Z
TLE epoch observation values (Epoch: 2026-02-04T11:26:05.863Z)
Latitude
52.49874°
Longitude
-93.53958°
Altitude
1,345.957 km
Speed
7.185 km/s
True Right ascension
14h 10m 30s
True Declination
52° 20' 43"
Sunlit
Object was in daylight at epoch
Visualization orbit readout
Latitude
Unknown
Longitude
Unknown
Altitude
Unknown
Speed
Unknown
Apparent Right ascension
Unknown
Apparent Declination
Unknown
Sunlit
N/A
Visualization observer readout
Local Sidereal Time
01:38:38
Azimuth
Unknown
Elevation
Unknown
Doppler factor
Unknown
Orbital elements
Apogee altitude
1,570.854 km
Perigee altitude
1,078.769 km
Semi-major axis
7,702.948 km
Eccentricity
0.03194
Inclination
105.8038°
RAAN
234.1591°
Arg. of periapsis
321.0889°
True anomaly
94.33813°
Mean anomaly
90.6824°
Eccentric anomaly
92.51075°
Mean motion
3.21039 °/min
Orbital period
112.14 mins
BSTAR
-0.000044373
Loading maneuver chart data...
Computing Atmospheric mass density...
Loading historical data...
Loading historical data...
Loading historical data...
Loading historical data...
Loading historical data...
Loading historical data...
Loading historical data...

Documentation

Showing up to 5 results
|